Perugia, Italy

7:04 AM CEST on August 25, 2016 (GMT +0200)
San Egidio

Weather History for LIRZ - February, 2013

Change the Weather History Date:

Thursday, February 21, 2013

  Actual Average Record
Temperature  
Mean Temperature 45 °F -  
Max Temperature 53 °F 54 °F 60 °F (1997)
Min Temperature 37 °F 36 °F 23 °F (2003)
Degree Days  
Heating Degree Days 20    
Moisture  
Dew Point 39 °F    
Average Humidity 78    
Maximum Humidity 93    
Minimum Humidity 54    
Precipitation  
Precipitation 0.00 in 0.08 in - ()
Sea Level Pressure  
Sea Level Pressure 29.73 in    
Wind  
Wind Speed 4 mph ()    
Max Wind Speed 9 mph    
Max Gust Speed -    
Visibility 6.2 miles    
Events Rain    
Averages and records for this station are not official NWS values.
T = Trace of Precipitation, MM = Missing Value Source: Averaged Metar Reports

Daily Weather History Graph

Daily Weather History Graph

Search for Another Location

Airport or City:

Trip Planner

Search our weather history database for the weather conditions in past years. The results will help you decide how hot, cold, wet, or windy it might be!

Date:

Astronomy

Feb. 21, 2013 Rise Set
Actual Time 6:58 AM CET 5:48 PM CET
Civil Twilight 6:29 AM CET 6:17 PM CET
Nautical Twilight 5:56 AM CET 6:50 PM CET
Astronomical Twilight 5:24 AM CET 7:23 PM CET
Moon 1:44 PM CET (2/21) 3:55 AM CET (2/21)
Length of Visible Light 11h 47m
Length of Day
10h 50m
Waxing Gibbous, 82% of the Moon is Illuminated
Feb 21
Waxing Gibbous
Feb 25
Full
Mar 4
Last Quarter
Mar 11
New
Mar 19
First Quarter

Hourly Weather History & Observations

Time (CET) Temp. Windchill Dew Point Humidity Pressure Visibility Wind Dir Wind Speed Gust Speed Precip Events Conditions
6:06 AM 37.4 °F 32.8 °F 35.6 °F 93% 29.80 in 6.2 mi North 5.8 mph - N/A   Mostly Cloudy
6:50 AM 39.2 °F 35.9 °F 35.6 °F 87% 29.80 in 6.2 mi North 4.6 mph - N/A   Mostly Cloudy
7:50 AM 37.4 °F 33.8 °F 35.6 °F 93% 29.80 in 6.2 mi WSW 4.6 mph - N/A   Mostly Cloudy
8:50 AM 42.8 °F 41.1 °F 35.6 °F 76% 29.80 in 6.2 mi North 3.5 mph - N/A   Mostly Cloudy
9:50 AM 46.4 °F 45.2 °F 35.6 °F 66% 29.80 in 6.2 mi North 3.5 mph - N/A   Mostly Cloudy
10:50 AM 48.2 °F - 35.6 °F 62% 29.80 in 6.2 mi Variable 1.2 mph - N/A   Scattered Clouds
11:50 AM 50.0 °F - 37.4 °F 62% 29.77 in 6.2 mi WSW 3.5 mph - N/A   Scattered Clouds
12:50 PM 53.6 °F - 37.4 °F 54% 29.74 in 6.2 mi Variable 1.2 mph - N/A   Scattered Clouds
1:50 PM 51.8 °F - 37.4 °F 58% 29.71 in 6.2 mi Variable 2.3 mph - N/A   Mostly Cloudy
2:50 PM 51.8 °F - 37.4 °F 58% 29.71 in 6.2 mi WSW 5.8 mph - N/A   Mostly Cloudy
3:50 PM 51.8 °F - 37.4 °F 58% 29.68 in 6.2 mi WSW 6.9 mph - N/A   Mostly Cloudy
4:50 PM 48.2 °F - 41.0 °F 76% 29.68 in 6.2 mi WSW 9.2 mph - N/A Rain Light Rain
5:50 PM 46.4 °F - 42.8 °F 87% 29.68 in 6.2 mi Variable 2.3 mph - N/A   Mostly Cloudy
6:50 PM 44.6 °F - 42.8 °F 93% 29.68 in 6.2 mi Variable 2.3 mph - N/A   Mostly Cloudy
7:50 PM 44.6 °F - 42.8 °F 93% 29.68 in 6.2 mi Variable 1.2 mph - N/A   Mostly Cloudy
8:50 PM 44.6 °F - 42.8 °F 93% 29.68 in 6.2 mi Variable 2.3 mph - N/A   Mostly Cloudy
9:50 PM 46.4 °F - 42.8 °F 87% 29.68 in 6.2 mi Variable 2.3 mph - N/A   Mostly Cloudy
10:50 PM 44.6 °F - 41.0 °F 87% 29.65 in 6.2 mi Variable 2.3 mph - N/A   Mostly Cloudy
11:50 PM 42.8 °F 38.6 °F 41.0 °F 93% 29.65 in 6.2 mi NNW 6.9 mph - N/A   Mostly Cloudy